Time,TemperatureF,DewpointF,PressureIn,WindDirection,WindDirectionDegrees,WindSpeedMPH,WindSpeedGustMPH,Humidity,HourlyPrecipIn,Conditions,Clouds,dailyrainin,SolarRadiationWatts/m^2,SoftwareType,DateUTC
2013-01-07 00:02:00,43.0,34.0,-100.00,NW,305,6.0,9.0,70,0.00,,,0.01,0.000000,,2013-01-07 08:02:00,
2013-01-07 00:11:00,43.0,34.0,-100.00,NW,305,6.0,9.0,70,0.00,,,0.01,0.000000,,2013-01-07 08:11:00,
2013-01-07 00:22:00,43.0,34.0,-100.00,NW,305,6.0,9.0,70,0.00,,,0.01,0.000000,,2013-01-07 08:22:00,
2013-01-07 00:43:00,42.0,34.0,-100.00,WNW,300,8.0,10.0,73,0.00,,,0.00,0.000000,,2013-01-07 08:43:00,
2013-01-07 00:53:00,42.0,34.0,-100.00,WNW,300,8.0,10.0,73,0.00,,,0.00,0.000000,,2013-01-07 08:53:00,
2013-01-07 01:02:00,42.0,34.0,-100.00,WNW,300,8.0,10.0,73,0.00,,,0.00,0.000000,,2013-01-07 09:02:00,
2013-01-07 01:12:00,42.0,34.0,-100.00,WNW,300,8.0,10.0,73,0.00,,,0.00,0.000000,,2013-01-07 09:12:00,
2013-01-07 01:22:00,42.0,34.0,-100.00,WNW,300,8.0,10.0,73,0.00,,,0.00,0.000000,,2013-01-07 09:22:00,
2013-01-07 01:42:00,41.0,33.0,-100.00,NW,326,7.0,12.0,73,0.00,,,0.00,0.000000,,2013-01-07 09:42:00,
2013-01-07 01:52:00,41.0,33.0,-100.00,NW,326,7.0,12.0,73,0.00,,,0.00,0.000000,,2013-01-07 09:52:00,
2013-01-07 02:02:00,41.0,33.0,-100.00,NW,326,7.0,12.0,73,0.00,,,0.00,0.000000,,2013-01-07 10:02:00,
2013-01-07 02:12:00,41.0,33.0,-100.00,NW,326,7.0,12.0,73,0.00,,,0.00,0.000000,,2013-01-07 10:12:00,
2013-01-07 02:22:00,41.0,33.0,-100.00,NW,326,7.0,12.0,73,0.00,,,0.00,0.000000,,2013-01-07 10:22:00,
2013-01-07 02:43:00,41.0,34.0,-100.00,NW,312,5.0,10.0,75,0.00,,,0.00,0.000000,,2013-01-07 10:43:00,
2013-01-07 02:52:00,41.0,34.0,-100.00,NW,312,5.0,10.0,75,0.00,,,0.00,0.000000,,2013-01-07 10:52:00,
2013-01-07 03:02:00,41.0,34.0,-100.00,NW,312,5.0,10.0,75,0.00,,,0.00,0.000000,,2013-01-07 11:02:00,
2013-01-07 03:12:00,41.0,34.0,-100.00,NW,312,5.0,10.0,75,0.00,,,0.00,0.000000,,2013-01-07 11:12:00,
2013-01-07 03:22:00,41.0,34.0,-100.00,NW,312,5.0,10.0,75,0.00,,,0.00,0.000000,,2013-01-07 11:22:00,
2013-01-07 03:43:00,39.0,33.0,-100.00,ENE,65,3.0,4.0,80,0.00,,,0.00,0.000000,,2013-01-07 11:43:00,
2013-01-07 03:53:00,39.0,33.0,-100.00,ENE,65,3.0,4.0,80,0.00,,,0.00,0.000000,,2013-01-07 11:53:00,
2013-01-07 04:02:00,39.0,33.0,-100.00,ENE,65,3.0,4.0,80,0.00,,,0.00,0.000000,,2013-01-07 12:02:00,
2013-01-07 04:12:00,39.0,33.0,-100.00,ENE,65,3.0,4.0,80,0.00,,,0.00,0.000000,,2013-01-07 12:12:00,
2013-01-07 04:22:00,39.0,33.0,-100.00,ENE,65,3.0,4.0,80,0.00,,,0.00,0.000000,,2013-01-07 12:22:00,
2013-01-07 04:43:00,38.0,33.0,-100.00,ESE,123,1.0,4.0,83,0.00,,,0.00,0.000000,,2013-01-07 12:43:00,
2013-01-07 04:53:00,38.0,33.0,-100.00,ESE,123,1.0,4.0,83,0.00,,,0.00,0.000000,,2013-01-07 12:53:00,
2013-01-07 05:02:00,38.0,33.0,-100.00,ESE,123,1.0,4.0,83,0.00,,,0.00,0.000000,,2013-01-07 13:02:00,
2013-01-07 05:12:00,38.0,33.0,-100.00,ESE,123,1.0,4.0,83,0.00,,,0.00,0.000000,,2013-01-07 13:12:00,
2013-01-07 05:22:00,38.0,33.0,-100.00,ESE,123,1.0,4.0,83,0.00,,,0.00,0.000000,,2013-01-07 13:22:00,
2013-01-07 05:43:00,39.0,34.0,-100.00,NW,305,5.0,7.0,83,0.00,,,0.00,0.000000,,2013-01-07 13:43:00,
2013-01-07 05:53:00,39.0,34.0,-100.00,NW,305,5.0,7.0,83,0.00,,,0.00,0.000000,,2013-01-07 13:53:00,
2013-01-07 06:03:00,39.0,34.0,-100.00,NW,305,5.0,7.0,83,0.00,,,0.00,0.000000,,2013-01-07 14:03:00,
2013-01-07 06:12:00,39.0,34.0,-100.00,NW,305,5.0,7.0,83,0.00,,,0.00,0.000000,,2013-01-07 14:12:00,
2013-01-07 06:22:00,39.0,34.0,-100.00,NW,305,5.0,7.0,83,0.00,,,0.00,0.000000,,2013-01-07 14:22:00,
2013-01-07 06:43:00,41.0,33.0,-100.00,NNW,346,4.0,7.0,74,0.00,,,0.00,0.000000,,2013-01-07 14:43:00,
2013-01-07 06:53:00,41.0,33.0,-100.00,NNW,346,4.0,7.0,74,0.00,,,0.00,0.000000,,2013-01-07 14:53:00,
2013-01-07 07:03:00,41.0,33.0,-100.00,NNW,346,4.0,7.0,74,0.00,,,0.00,0.000000,,2013-01-07 15:03:00,
2013-01-07 07:12:00,41.0,33.0,-100.00,NNW,346,4.0,7.0,74,0.00,,,0.00,0.000000,,2013-01-07 15:12:00,
2013-01-07 07:22:00,41.0,33.0,-100.00,NNW,346,4.0,7.0,74,0.00,,,0.00,0.000000,,2013-01-07 15:22:00,
2013-01-07 07:43:00,41.0,34.0,-100.00,West,275,4.0,7.0,75,0.00,,,0.00,0.000000,,2013-01-07 15:43:00,
2013-01-07 07:53:00,41.0,34.0,-100.00,West,275,4.0,7.0,75,0.00,,,0.00,0.000000,,2013-01-07 15:53:00,
2013-01-07 08:02:00,41.0,34.0,-100.00,West,275,4.0,7.0,75,0.00,,,0.00,0.000000,,2013-01-07 16:02:00,
2013-01-07 08:12:00,41.0,34.0,-100.00,West,275,4.0,7.0,75,0.00,,,0.00,0.000000,,2013-01-07 16:12:00,
2013-01-07 08:22:00,41.0,34.0,-100.00,West,275,4.0,7.0,75,0.00,,,0.00,0.000000,,2013-01-07 16:22:00,
2013-01-07 08:43:00,41.0,33.0,-100.00,WNW,300,2.0,5.0,73,0.00,,,0.00,18.000000,,2013-01-07 16:43:00,
2013-01-07 08:53:00,41.0,33.0,-100.00,WNW,300,2.0,5.0,73,0.00,,,0.00,18.000000,,2013-01-07 16:53:00,
2013-01-07 09:02:00,41.0,33.0,-100.00,WNW,300,2.0,5.0,73,0.00,,,0.00,18.000000,,2013-01-07 17:02:00,
2013-01-07 09:12:00,41.0,33.0,-100.00,WNW,300,2.0,5.0,73,0.00,,,0.00,18.000000,,2013-01-07 17:12:00,
2013-01-07 09:22:00,41.0,33.0,-100.00,WNW,300,2.0,5.0,73,0.00,,,0.00,18.000000,,2013-01-07 17:22:00,
2013-01-07 09:43:00,45.0,37.0,-100.00,NW,304,3.0,7.0,74,0.00,,,0.00,86.000000,,2013-01-07 17:43:00,
2013-01-07 09:53:00,45.0,37.0,-100.00,NW,304,3.0,7.0,74,0.00,,,0.00,86.000000,,2013-01-07 17:53:00,
2013-01-07 10:02:00,45.0,37.0,-100.00,NW,304,3.0,7.0,74,0.00,,,0.00,86.000000,,2013-01-07 18:02:00,
2013-01-07 10:12:00,45.0,37.0,-100.00,NW,304,3.0,7.0,74,0.00,,,0.00,86.000000,,2013-01-07 18:12:00,
2013-01-07 10:22:00,45.0,37.0,-100.00,NW,304,3.0,7.0,74,0.00,,,0.00,86.000000,,2013-01-07 18:22:00,
2013-01-07 10:43:00,52.0,36.0,-100.00,NNW,328,7.0,9.0,54,0.00,,,0.00,266.000000,,2013-01-07 18:43:00,
2013-01-07 10:53:00,52.0,36.0,-100.00,NNW,328,7.0,9.0,54,0.00,,,0.00,266.000000,,2013-01-07 18:53:00,
2013-01-07 11:03:00,52.0,36.0,-100.00,NNW,328,7.0,9.0,54,0.00,,,0.00,266.000000,,2013-01-07 19:03:00,
2013-01-07 11:12:00,52.0,36.0,-100.00,NNW,328,7.0,9.0,54,0.00,,,0.00,266.000000,,2013-01-07 19:12:00,
2013-01-07 11:22:00,52.0,36.0,-100.00,NNW,328,7.0,9.0,54,0.00,,,0.00,266.000000,,2013-01-07 19:22:00,
2013-01-07 11:43:00,54.0,37.0,-100.00,NNW,347,6.0,9.0,52,0.00,,,0.00,300.000000,,2013-01-07 19:43:00,
2013-01-07 11:53:00,54.0,37.0,-100.00,NNW,347,6.0,9.0,52,0.00,,,0.00,300.000000,,2013-01-07 19:53:00,
2013-01-07 12:02:00,54.0,37.0,-100.00,NNW,347,6.0,9.0,52,0.00,,,0.00,300.000000,,2013-01-07 20:02:00,
2013-01-07 12:12:00,54.0,37.0,-100.00,NNW,347,6.0,9.0,52,0.00,,,0.00,300.000000,,2013-01-07 20:12:00,
2013-01-07 12:22:00,54.0,37.0,-100.00,NNW,347,6.0,9.0,52,0.00,,,0.00,300.000000,,2013-01-07 20:22:00,
2013-01-07 12:43:00,58.0,37.0,-100.00,NNE,22,3.0,9.0,46,0.00,,,0.00,348.000000,,2013-01-07 20:43:00,
2013-01-07 12:53:00,58.0,37.0,-100.00,NNE,22,3.0,9.0,46,0.00,,,0.00,348.000000,,2013-01-07 20:53:00,
2013-01-07 13:02:00,58.0,37.0,-100.00,NNE,22,3.0,9.0,46,0.00,,,0.00,348.000000,,2013-01-07 21:02:00,
2013-01-07 13:12:00,58.0,37.0,-100.00,NNE,22,3.0,9.0,46,0.00,,,0.00,348.000000,,2013-01-07 21:12:00,
2013-01-07 13:22:00,58.0,37.0,-100.00,NNE,22,3.0,9.0,46,0.00,,,0.00,348.000000,,2013-01-07 21:22:00,
2013-01-07 13:43:00,62.0,37.0,-100.00,NNW,336,2.0,8.0,40,0.00,,,0.00,416.000000,,2013-01-07 21:43:00,
2013-01-07 13:53:00,62.0,37.0,-100.00,NNW,336,2.0,8.0,40,0.00,,,0.00,416.000000,,2013-01-07 21:53:00,
2013-01-07 14:02:00,62.0,37.0,-100.00,NNW,336,2.0,8.0,40,0.00,,,0.00,416.000000,,2013-01-07 22:02:00,
2013-01-07 14:12:00,62.0,37.0,-100.00,NNW,336,2.0,8.0,40,0.00,,,0.00,416.000000,,2013-01-07 22:12:00,
2013-01-07 14:22:00,62.0,37.0,-100.00,NNW,336,2.0,8.0,40,0.00,,,0.00,416.000000,,2013-01-07 22:22:00,
2013-01-07 14:43:00,63.0,40.0,-100.00,SSE,156,3.0,5.0,42,0.00,,,0.00,336.000000,,2013-01-07 22:43:00,
2013-01-07 14:53:00,63.0,40.0,-100.00,SSE,156,3.0,5.0,42,0.00,,,0.00,336.000000,,2013-01-07 22:53:00,
2013-01-07 15:02:00,63.0,40.0,-100.00,SSE,156,3.0,5.0,42,0.00,,,0.00,336.000000,,2013-01-07 23:02:00,
2013-01-07 15:12:00,63.0,40.0,-100.00,SSE,156,3.0,5.0,42,0.00,,,0.00,336.000000,,2013-01-07 23:12:00,
2013-01-07 15:22:00,63.0,40.0,-100.00,SSE,156,3.0,5.0,42,0.00,,,0.00,336.000000,,2013-01-07 23:22:00,
2013-01-07 15:43:00,63.0,41.0,-100.00,ESE,117,2.0,4.0,44,0.00,,,0.00,244.000000,,2013-01-07 23:43:00,
2013-01-07 15:53:00,63.0,41.0,-100.00,ESE,117,2.0,4.0,44,0.00,,,0.00,244.000000,,2013-01-07 23:53:00,
2013-01-07 16:02:00,63.0,41.0,-100.00,ESE,117,2.0,4.0,44,0.00,,,0.00,244.000000,,2013-01-08 00:02:00,
2013-01-07 16:12:00,63.0,41.0,-100.00,ESE,117,2.0,4.0,44,0.00,,,0.00,244.000000,,2013-01-08 00:12:00,
2013-01-07 16:22:00,63.0,41.0,-100.00,ESE,117,2.0,4.0,44,0.00,,,0.00,244.000000,,2013-01-08 00:22:00,
2013-01-07 16:43:00,59.0,39.0,-100.00,East,95,3.0,5.0,48,0.00,,,0.00,92.000000,,2013-01-08 00:43:00,
2013-01-07 16:52:00,59.0,39.0,-100.00,East,95,3.0,5.0,48,0.00,,,0.00,92.000000,,2013-01-08 00:52:00,
2013-01-07 17:02:00,59.0,39.0,-100.00,East,95,3.0,5.0,48,0.00,,,0.00,92.000000,,2013-01-08 01:02:00,
2013-01-07 17:12:00,59.0,39.0,-100.00,East,95,3.0,5.0,48,0.00,,,0.00,92.000000,,2013-01-08 01:12:00,
2013-01-07 17:22:00,59.0,39.0,-100.00,East,95,3.0,5.0,48,0.00,,,0.00,92.000000,,2013-01-08 01:22:00,
2013-01-07 17:42:00,54.0,42.0,-100.00,NW,309,1.0,3.0,64,0.00,,,0.00,15.000000,,2013-01-08 01:42:00,
2013-01-07 17:52:00,54.0,42.0,-100.00,NW,309,1.0,3.0,64,0.00,,,0.00,15.000000,,2013-01-08 01:52:00,
2013-01-07 18:02:00,54.0,42.0,-100.00,NW,309,1.0,3.0,64,0.00,,,0.00,15.000000,,2013-01-08 02:02:00,
2013-01-07 18:12:00,54.0,42.0,-100.00,NW,309,1.0,3.0,64,0.00,,,0.00,15.000000,,2013-01-08 02:12:00,
2013-01-07 18:22:00,54.0,42.0,-100.00,NW,309,1.0,3.0,64,0.00,,,0.00,15.000000,,2013-01-08 02:22:00,
2013-01-07 18:43:00,49.0,42.0,-100.00,NW,314,4.0,5.0,76,0.00,,,0.00,0.000000,,2013-01-08 02:43:00,
2013-01-07 18:53:00,49.0,42.0,-100.00,NW,314,4.0,5.0,76,0.00,,,0.00,0.000000,,2013-01-08 02:53:00,
2013-01-07 19:03:00,49.0,42.0,-100.00,NW,314,4.0,5.0,76,0.00,,,0.00,0.000000,,2013-01-08 03:03:00,
2013-01-07 19:12:00,49.0,42.0,-100.00,NW,314,4.0,5.0,76,0.00,,,0.00,0.000000,,2013-01-08 03:12:00,
2013-01-07 19:22:00,49.0,42.0,-100.00,NW,314,4.0,5.0,76,0.00,,,0.00,0.000000,,2013-01-08 03:22:00,
2013-01-07 19:43:00,49.0,40.0,-100.00,SW,232,1.0,5.0,72,0.00,,,0.00,0.000000,,2013-01-08 03:43:00,
2013-01-07 19:53:00,49.0,40.0,-100.00,SW,232,1.0,5.0,72,0.00,,,0.00,0.000000,,2013-01-08 03:53:00,
2013-01-07 20:02:00,49.0,40.0,-100.00,SW,232,1.0,5.0,72,0.00,,,0.00,0.000000,,2013-01-08 04:02:00,
2013-01-07 20:12:00,49.0,40.0,-100.00,SW,232,1.0,5.0,72,0.00,,,0.00,0.000000,,2013-01-08 04:12:00,
2013-01-07 20:22:00,49.0,40.0,-100.00,SW,232,1.0,5.0,72,0.00,,,0.00,0.000000,,2013-01-08 04:22:00,
2013-01-07 20:43:00,45.0,40.0,-100.00,ENE,59,1.0,5.0,82,0.00,,,0.00,0.000000,,2013-01-08 04:43:00,
2013-01-07 20:52:00,45.0,40.0,-100.00,ENE,59,1.0,5.0,82,0.00,,,0.00,0.000000,,2013-01-08 04:52:00,
2013-01-07 21:03:00,45.0,40.0,-100.00,ENE,59,1.0,5.0,82,0.00,,,0.00,0.000000,,2013-01-08 05:03:00,
2013-01-07 21:12:00,45.0,40.0,-100.00,ENE,59,1.0,5.0,82,0.00,,,0.00,0.000000,,2013-01-08 05:12:00,
2013-01-07 21:22:00,45.0,40.0,-100.00,ENE,59,1.0,5.0,82,0.00,,,0.00,0.000000,,2013-01-08 05:22:00,
2013-01-07 21:43:00,42.0,39.0,-100.00,ENE,75,2.0,4.0,89,0.00,,,0.00,0.000000,,2013-01-08 05:43:00,
2013-01-07 21:53:00,42.0,39.0,-100.00,ENE,75,2.0,4.0,89,0.00,,,0.00,0.000000,,2013-01-08 05:53:00,
2013-01-07 22:02:00,42.0,39.0,-100.00,ENE,75,2.0,4.0,89,0.00,,,0.00,0.000000,,2013-01-08 06:02:00,
2013-01-07 22:12:00,42.0,39.0,-100.00,ENE,75,2.0,4.0,89,0.00,,,0.00,0.000000,,2013-01-08 06:12:00,
2013-01-07 22:22:00,42.0,39.0,-100.00,ENE,75,2.0,4.0,89,0.00,,,0.00,0.000000,,2013-01-08 06:22:00,
2013-01-07 22:43:00,42.0,38.0,-100.00,NW,315,6.0,8.0,86,0.00,,,0.00,0.000000,,2013-01-08 06:43:00,
2013-01-07 22:53:00,42.0,38.0,-100.00,NW,315,6.0,8.0,86,0.00,,,0.00,0.000000,,2013-01-08 06:53:00,
2013-01-07 23:02:00,42.0,38.0,-100.00,NW,315,6.0,8.0,86,0.00,,,0.00,0.000000,,2013-01-08 07:02:00,
2013-01-07 23:11:00,42.0,38.0,-100.00,NW,315,6.0,8.0,86,0.00,,,0.00,0.000000,,2013-01-08 07:11:00,
2013-01-07 23:22:00,42.0,38.0,-100.00,NW,315,6.0,8.0,86,0.00,,,0.00,0.000000,,2013-01-08 07:22:00,
2013-01-07 23:42:00,43.0,39.0,-100.00,NW,325,4.0,7.0,86,0.00,,,0.00,0.000000,,2013-01-08 07:42:00,
2013-01-07 23:52:00,43.0,39.0,-100.00,NW,325,4.0,7.0,86,0.00,,,0.00,0.000000,,2013-01-08 07:52:00,